SCP
0 0 -0 0 0 0 -0 -0 -0 -0 -0 -0 -0 -0 -0 -0 -0 -0 -0 -0 -0 -0 -0 -0 0 -0 0 0 0 -0 -0 0 0 0 0 0 0 0 0 0 0 0 0 0 -0 -0 -0
-0 0 0 0 0 -0 -0 -0 -0 -0 -0 -0 -0 -0 -0 -0 -0 -0 -0 -0 -0 -0 -0 -0 0 -0 -0 0 0 0 0 0 0 0 0 0 0 0 0 0 0 0 0 0 0 -0 0
-0 0 0 -0 -0 -0 -0 -0 -0 -0 -0 -0 -0 -0 -0 -0 -0 -0 -0 -0 -0 -0 -0 -0 0 0 0 0 0 0 0 0 0 0 0 0 0 0 0 0 0 0 0 0 0 0 0
-0 -0 -0 -0 -0 -0 -0 -0 -0 -0 -0 -0 -0 -0 -0 -0 -0 -0 -0 -0 -0 -0 0 0 0 0 0 0 0 0 0 0 0 0 0 0 0 0 0 0 0 0 0 0 0 0 0
-0 -0 -0 -0 -0 -0 -0 -0 -0 -0 -0 -0 -0 -0 -0 -0 -0 -0 -0 -0 0 0 0 -0 0 0 0 0 0 0 0 0 0 0 0 0 0 0 0 0 0 0 0 0 0 0 0
-0 -0 -0 -0 -0 -0 -0 -0 -0 -0 -0 -0 -0 -0 -0 -0 -0 -0 -0 -0 0 0 0 0 0 0 0 0 0 0 0 0 0 0 0 0 0 0 0 0 0 0 0 0 0 0 0
-0 -0 -0 -0 -0 -0 -0 -0 -0 -0 -0 -0 -0 -0 -0 -0 -0 -0 0 0 0 0 0 0 0 0 0 0 0 0 0 0 0 0 0 0 0 0 0 0 0 0 0 0 0 0 0
0 -0 -0 -0 -0 -0 -0 -0 -0 -0 -0 -0 -0 -0 -0 -0 -0 -0 0 0 0 -0 0 0 0 0 0 0 0 0 0 0 0 0 0 0 0 0 0 0 0 0 0 0 0 0 0
0 -0 -0 -0 -0 -0 -0 -0 -0 -0 -0 -0 -0 -0 -0 -0 -0 0 0 0 0 0 0 0 0 0 0 0 0 0 0 0 0 0 0 0 0 0 0 0 0 0 0 0 0 0 0
-0 -0 -0 -0 -0 -0 -0 -0 -0 -0 -0 -0 -0 -0 -0 -0 0 -0 0 0 0 0 0 0 0 0 0 0 0 0 0 0 0 0 0 0 0 0 0 0 0 0 0 0 0 0 0
0 -0 -0 -0 -0 -0 -0 -0 -0 -0 -0 -0 -0 -0 0 0 0 0 -0 0 0 0 0 0 0 0 0 0 0 0 0 0 0 0 0 0 0 0 0 0 0 0 0 0 0 0 0
0 0 -0 -0 -0 -0 -0 -0 -0 -0 -0 -0 -0 0 -0 -0 0 0 0 0 0 0 0 0 0 0 0 0 0 0 0 0 0 0 0 0 0 0 0 0 0 0 0 0 0 0 0
0 0 0 0 0 -0 -0 -0 -0 -0 -0 -0 -0 -0 -0 -0 0 -0 0 0 0 0 0 0 0 0 0 0 0 0 0 0 0 0 0 0 0 0 0 0 0 0 0 0 0 0 0
0 0 0 0 0 -0 -0 -0 -0 -0 -0 -0 -0 -0 -0 0 -0 0 0 0 0 0 0 0 0 0 0 0 0 0 0 0 0 0 0 0 0 0 0 0 0 0 0 0 0 0 0
0 0 0 0 0 0 -0 -0 -0 -0 -0 -0 0 0 0 0 0 0 0 0 0 0 0 0 0 0 0 0 0 0 0 0 0 0 0 0 0 0 0 0 0 0 0 0 0 0 0
0 0 0 0 0 0 0 -0 -0 -0 -0 -0 0 0 0 0 0 0 0 0 0 0 0 0 0 0 0 0 0 0 0 0 0 0 0 0 0 0 0 0 0 0 0 0 0 0 0
0 0 0 0 0 0 0 0 -0 -0 -0 0 0 0 0 0 0 0 0 0 0 0 0 0 0 0 0 0 0 0 0 0 0 0 0 0 0 0 0 0 0 0 0 0 0 0 0
0 0 0 0 0 0 -0 -0 -0 -0 0 0 0 0 0 0 0 0 0 0 0 0 0 0 0 0 0 0 0 0 0 0 0 0 0 0 0 0 0 0 0 0 0 0 0 0 0
0 0 0 0 0 0 -0 -0 -0 0 0 0 0 0 0 0 0 0 0 0 0 0 0 0 0 0 0 0 0 0 0 0 0 0 0 0 0 0 0 0 0 0 0 0 0 0 0
0 0 0 0 0 0 0 -0 0 0 0 0 0 0 0 0 0 0 0 0 0 0 0 0 0 0 0 0 0 0 0 0 0 0 0 0 0 0 0 0 0 0 0 0 0 0 0
0 0 0 0 0 0 0 0 0 0 0 0 0 0 0 0 0 0 0 0 0 0 0 0 0 0 0 0 0 0 0 0 0 0 0 0 0 0 0 0 0 0 0 0 0 0 0
0 0 0 0 0 0 0 0 0 0 0 0 0 0 0 0 0 0 0 0 0 0 0 0 0 0 0 0 0 0 0 0 0 0 0 0 0 0 0 0 0 0 0 0 0 0 0
0 0 0 0 0 0 0 0 0 0 0 0 0 0 0 0 0 0 0 0 0 0 0 0 0 0 0 0 0 0 0 0 0 0 0 0 0 0 0 0 0 0 0 0 0 0 0
0 0 0 0 0 0 0 0 0 0 0 0 0 0 0 0 0 0 0 0 0 0 0 0 0 0 0 0 0 0 0 0 0 0 0 0 0 0 0 0 0 0 0 0 0 0 0
0 0 0 0 0 0 0 0 0 0 0 0 0 0 0 0 0 0 0 0 0 0 0 0 0 0 0 0 0 0 0 0 0 0 0 0 0 0 0 0 0 0 0 0 0 0 0
0 0 0 0 0 0 0 0 0 0 0 0 0 0 0 0 0 0 0 0 0 0 0 0 0 0 0 0 0 0 0 0 0 0 0 0 0 0 0 0 0 0 0 0 0 0 0
0 0 0 0 0 0 0 0 0 0 0 0 0 0 0 0 0 0 0 0 0 0 0 0 0 0 0 0 0 0 0 0 0 0 0 0 0 0 0 0 0 0 0 0 0 0 0
0 0 0 0 0 0 0 0 0 0 0 0 0 0 0 0 0 0 0 0 0 0 0 0 0 0 0 0 0 0 0 0 0 0 0 0 0 0 0 0 0 0 0 0 0 0 0
0 0 0 0 0 0 0 0 0 0 0 0 0 0 0 0 0 0 0 0 0 0 0 0 0 0 0 0 0 0 0 0 0 0 0 0 0 0 0 0 0 0 0 0 0 -0 -0
Wind_Speed_500mb
44 46 51 53 51 48 44 42 41 40 38 35 37 34 34 33 31 29 27 25 22 18 14 14 10 8 2 5 7 8 5 1 1 2 7 8 12 7 4 5 12 0 6 10 15 24 19
48 53 55 50 42 36 36 40 41 40 38 35 35 34 33 32 29 28 27 24 20 15 11 12 9 5 5 6 12 8 2 3 1 3 8 10 8 8 2 4 3 11 19 29 19 14 10
50 49 43 36 34 35 37 39 40 39 38 35 35 33 30 28 27 26 26 23 15 8 6 9 8 7 8 8 11 5 4 4 3 4 5 8 8 5 5 7 10 12 14 12 14 17 5
38 30 30 32 34 37 37 36 36 35 35 37 35 31 27 23 22 22 21 16 10 5 7 9 10 11 7 8 5 2 4 4 2 1 4 7 10 4 1 5 10 8 8 10 9 19 10
25 26 29 30 31 33 34 34 35 36 37 35 33 29 24 19 18 18 11 13 14 16 18 15 11 9 8 8 5 5 4 3 4 3 3 9 8 5 3 7 8 13 2 6 18 12 7
25 27 29 32 31 33 34 34 36 36 36 36 34 28 22 16 15 15 9 15 20 20 16 14 12 8 6 5 4 6 3 4 2 2 3 3 6 6 7 9 4 3 3 5 7 11 13
22 26 29 31 34 38 37 37 38 38 39 39 36 28 19 12 15 12 12 13 7 9 16 10 8 7 5 11 7 7 5 5 2 3 5 7 10 2 6 6 4 5 2 5 8 5 5
17 24 29 32 34 36 39 40 39 39 41 41 35 28 18 10 14 16 7 5 12 10 12 17 13 11 9 9 5 8 5 3 4 2 2 11 2 7 3 6 5 3 2 8 8 6 7
21 25 26 31 33 31 33 36 39 41 44 42 33 26 18 8 14 16 20 18 15 11 6 10 12 10 8 6 5 5 7 4 5 2 1 7 5 2 5 4 1 4 7 5 5 8 7
17 19 25 26 28 31 34 35 39 40 42 35 31 25 17 7 6 10 17 11 10 9 9 14 10 9 8 5 6 6 7 5 6 3 2 7 6 2 3 3 9 4 7 5 3 6 6
17 23 23 24 27 31 34 36 37 39 39 32 28 26 18 12 8 12 9 6 8 1 6 8 8 7 9 6 4 8 8 3 1 4 9 8 4 2 1 5 7 9 4 3 1 6 5
19 22 21 22 25 28 32 34 35 36 36 30 21 26 24 11 14 12 8 5 4 9 2 5 8 12 9 10 7 5 5 7 3 2 5 11 7 4 4 4 2 7 7 12 8 6 2
20 22 23 26 28 31 35 37 37 37 33 25 13 24 28 21 13 10 5 4 9 9 8 10 7 10 4 9 11 15 10 15 9 9 11 12 3 6 3 3 5 10 10 6 6 6 7
22 25 23 26 27 30 32 35 35 36 32 25 12 13 29 23 13 11 4 8 7 1 4 7 7 9 7 14 8 14 7 9 11 11 6 7 9 6 8 4 2 5 8 8 6 3 5
22 20 25 27 29 29 34 39 39 40 35 22 9 8 25 19 14 10 2 12 3 3 7 11 9 9 8 9 9 10 9 8 6 11 7 10 8 9 3 3 4 2 1 5 9 5 4
19 22 27 30 33 35 38 39 40 39 36 23 7 2 26 12 12 8 11 9 5 7 10 4 5 5 7 13 9 10 9 9 12 10 2 4 9 4 9 3 8 2 6 4 6 4 7
16 20 24 30 32 38 38 38 41 39 36 21 4 5 24 8 10 14 8 5 7 13 8 10 5 7 6 8 5 7 8 4 13 14 8 7 3 13 6 10 4 9 5 9 5 7 7
18 21 25 29 31 35 39 40 40 39 35 19 5 4 21 6 11 9 5 4 6 15 21 14 8 7 6 8 9 6 6 5 28 7 6 5 5 7 12 4 4 7 7 8 6 5 1
19 21 26 27 29 33 37 37 38 38 35 23 6 9 21 5 8 5 7 9 19 15 14 12 10 10 8 7 2 6 7 9 29 16 6 8 4 7 15 8 10 12 7 4 3 4 7
16 21 24 27 28 31 34 36 35 34 29 18 5 6 22 29 18 11 8 6 7 21 13 14 11 10 9 9 10 4 11 8 20 21 17 1 2 8 10 5 1 11 11 6 4 2 5
15 20 23 27 30 31 35 38 36 33 24 11 11 7 7 5 18 18 10 5 5 9 11 26 10 11 6 5 5 8 10 11 10 25 13 9 3 7 7 10 7 10 6 5 9 9 10
12 16 20 23 27 30 33 35 37 34 19 13 7 9 15 10 7 11 13 7 5 4 9 7 8 7 10 7 4 5 8 2 3 14 10 15 4 8 8 9 9 10 7 4 5 5 5
9 15 17 19 22 26 31 35 36 34 24 16 19 19 6 12 6 6 3 3 3 7 10 11 5 5 5 3 17 29 28 27 21 5 6 3 2 6 8 10 15 5 4 9 3 7 3
5 11 14 17 20 23 27 32 36 39 39 23 20 13 10 5 8 5 6 7 7 6 7 6 11 5 5 30 27 8 6 13 16 17 22 4 3 2 6 11 6 3 5 12 10 5 9
3 8 12 14 17 18 22 27 31 34 37 27 18 9 8 7 11 11 13 9 8 10 7 6 9 10 20 15 7 8 7 2 8 6 8 16 4 1 2 4 7 5 4 2 1 4 3
1 4 8 10 12 15 20 24 27 26 28 25 28 23 16 25 1 11 9 6 5 3 7 5 11 9 13 8 6 6 4 5 8 13 18 10 7 4 1 2 7 4 3 19 7 3 19
0 2 5 4 7 12 17 21 23 24 22 25 28 20 13 16 10 9 5 7 6 7 5 4 10 11 15 6 6 6 3 3 4 6 6 4 3 5 6 6 10 2 7 8 8 5 12
3 2 3 3 2 7 12 16 18 20 21 20 26 25 13 11 16 10 7 7 8 4 6 2 4 9 7 7 4 1 1 2 3 6 4 2 2 6 3 6 12 3 2 2 11 30 29
7 4 3 9 2 3 7 10 14 16 17 17 18 18 14 9 10 8 2 4 13 9 6 5 6 2 3 6 1 3 2 3 4 5 7 6 9 6 11 8 7 10 14 26 39 32 23
Wind_Direction_500mb
325 324 323 320 320 320 322 320 318 319 317 323 319 325 326 327 329 327 325 321 308 287 261 255 259 280 242 147 115 127 136 161 342 56 33 33 43 20 29 335 342 161 306 296 287 289 280
317 317 316 315 319 320 321 323 325 320 322 323 320 324 324 327 331 329 329 324 310 291 260 240 231 232 171 127 135 116 165 227 176 71 55 45 44 6 352 1 30 316 303 297 307 304 255
313 315 316 319 325 329 328 328 326 326 326 326 325 323 323 328 333 337 336 334 325 298 236 210 188 173 156 142 153 129 44 137 126 76 38 22 9 357 331 347 337 324 345 349 14 340 28
317 324 327 335 339 337 337 336 335 333 335 338 326 321 321 331 334 343 349 3 12 78 140 156 150 145 109 151 169 284 327 167 148 104 53 30 5 44 69 323 10 33 46 17 324 4 5
326 329 344 347 347 342 342 345 348 349 349 344 334 331 328 336 337 349 23 50 68 89 105 116 122 116 108 114 103 51 61 132 167 215 336 324 329 64 54 72 23 9 60 357 328 31 339
343 346 347 349 346 342 346 350 351 352 349 349 348 343 337 342 346 3 89 89 93 89 91 88 85 106 99 33 349 331 232 185 96 137 294 23 53 57 33 64 211 265 14 317 265 317 20
352 356 345 346 346 350 350 354 355 355 353 352 353 349 349 358 359 23 130 120 109 79 58 69 65 75 47 5 61 75 70 166 178 49 62 25 61 188 247 191 132 123 145 268 262 272 60
350 337 342 357 355 357 355 356 359 0 357 355 357 356 359 31 33 39 140 130 109 132 81 58 62 56 33 17 60 73 51 68 82 96 26 19 236 207 203 144 154 171 262 280 285 331 106
330 339 347 356 358 2 4 5 3 3 360 358 4 5 7 46 45 53 74 93 119 117 88 46 46 35 19 31 54 44 28 29 78 43 19 163 232 321 175 141 193 243 183 223 220 349 68
353 359 3 1 4 3 3 7 5 5 2 3 10 14 10 25 47 43 47 69 116 99 81 325 358 26 23 38 47 26 22 22 31 2 137 233 290 342 120 250 136 278 195 170 157 77 212
5 8 5 6 3 3 4 6 7 4 3 5 15 13 18 28 49 40 35 62 134 82 42 337 348 1 353 54 327 21 14 10 39 305 78 263 338 2 4 229 173 218 59 8 331 118 73
9 8 4 7 4 3 1 3 4 5 1 2 8 17 20 23 40 40 26 97 104 48 154 9 347 358 32 18 22 1 54 54 49 50 11 247 298 260 250 55 32 112 76 40 46 84 22
4 3 6 5 3 2 359 356 358 359 1 357 354 13 19 18 4 23 32 114 39 96 332 337 342 9 336 334 13 28 41 17 33 19 6 332 319 322 10 49 37 72 54 342 353 4 235
1 1 5 3 1 358 352 352 353 353 359 349 328 357 18 11 13 4 59 53 82 173 345 341 347 324 69 4 32 15 59 33 23 20 17 28 344 23 343 87 178 47 136 152 276 243 268
1 8 3 359 359 357 353 351 351 349 352 350 329 318 358 10 10 9 56 53 116 333 297 337 318 52 14 0 32 67 50 22 4 17 47 10 283 322 49 9 93 137 116 175 102 11 35
4 4 5 1 359 357 353 349 350 351 350 350 332 303 2 11 18 13 76 122 119 13 329 338 68 14 47 344 39 36 22 334 342 31 306 343 314 327 294 77 34 96 160 40 17 243 265
10 6 7 2 359 358 353 349 348 353 351 352 336 136 9 22 16 40 91 102 92 26 51 35 41 42 44 15 11 35 1 6 359 325 24 357 102 294 344 33 35 356 14 45 124 143 204
15 8 7 3 359 354 353 350 350 353 356 357 317 56 10 62 42 52 70 66 52 8 28 38 89 69 57 38 33 64 104 31 355 328 12 1 125 285 250 343 326 55 65 60 96 289 173
16 11 6 2 359 359 357 351 353 355 359 0 28 11 16 105 103 74 65 58 51 26 28 16 39 24 13 47 71 62 31 25 19 36 54 327 355 348 348 6 18 46 35 82 192 81 231
19 9 7 4 3 4 0 358 357 359 3 13 10 25 34 55 65 99 97 36 88 41 51 56 24 45 36 34 16 55 9 3 357 15 0 193 121 189 212 259 230 307 328 28 149 188 267
3 8 11 10 13 12 9 6 4 2 6 23 49 68 58 22 23 70 82 50 66 22 37 30 38 48 12 38 19 29 10 337 15 10 33 61 293 332 292 280 256 252 306 314 229 243 207
358 6 17 17 16 15 14 12 10 9 6 36 67 113 83 72 35 52 31 35 58 35 29 17 75 357 14 81 111 299 18 255 273 4 36 0 306 352 280 318 327 276 344 121 19 343 50
0 5 18 25 25 19 19 19 23 25 34 72 89 95 92 22 55 69 10 132 71 116 65 69 68 73 56 319 296 283 273 257 260 6 344 344 60 28 271 334 312 282 40 86 71 17 71
11 13 18 26 30 27 25 27 32 36 46 63 95 96 91 33 57 74 107 95 81 50 129 81 52 58 308 313 309 292 284 262 256 257 220 198 151 154 282 339 234 124 92 130 112 38 50
10 22 21 25 31 29 30 34 40 41 44 42 68 89 91 102 104 83 95 99 89 72 78 80 34 349 330 335 25 22 357 85 43 47 226 193 136 297 321 278 300 258 179 60 309 200 54
69 19 34 37 40 39 37 37 41 44 47 45 66 78 97 121 208 125 112 84 116 39 19 26 13 355 6 44 44 55 59 324 324 352 56 91 79 104 39 275 265 173 318 329 183 222 327
300 12 31 66 64 49 45 43 39 39 45 50 62 64 80 101 129 139 129 136 118 116 114 343 348 5 16 25 62 52 354 303 328 322 327 1 37 184 260 268 285 228 321 13 185 170 297
216 264 308 172 110 52 45 39 34 33 38 46 54 50 68 97 131 137 126 126 144 129 123 84 48 3 38 62 93 259 116 275 323 272 284 265 332 229 192 233 265 186 65 2 284 308 296
204 267 282 196 178 61 42 35 29 25 26 32 48 45 64 99 132 151 165 245 214 132 103 88 122 145 109 92 65 116 255 23 133 272 329 276 204 212 182 238 243 281 245 293 299 275 271
Wind_Speed_850mb
44 46 51 53 51 48 44 42 41 40 38 35 37 34 34 33 31 29 27 25 22 18 14 14 10 8 2 5 7 8 5 1 1 2 7 8 12 7 4 5 12 0 6 10 15 24 19
48 53 55 50 42 36 36 40 41 40 38 35 35 34 33 32 29 28 27 24 20 15 11 12 9 5 5 6 12 8 2 3 1 3 8 10 8 8 2 4 3 11 19 29 19 14 10
50 49 43 36 34 35 37 39 40 39 38 35 35 33 30 28 27 26 26 23 15 8 6 9 8 7 8 8 11 5 4 4 3 4 5 8 8 5 5 7 10 12 14 12 14 17 5
38 30 30 32 34 37 37 36 36 35 35 37 35 31 27 23 22 22 21 16 10 5 7 9 10 11 7 8 5 2 4 4 2 1 4 7 10 4 1 5 10 8 8 10 9 19 10
25 26 29 30 31 33 34 34 35 36 37 35 33 29 24 19 18 18 11 13 14 16 18 15 11 9 8 8 5 5 4 3 4 3 3 9 8 5 3 7 8 13 2 6 18 12 7
25 27 29 32 31 33 34 34 36 36 36 36 34 28 22 16 15 15 9 15 20 20 16 14 12 8 6 5 4 6 3 4 2 2 3 3 6 6 7 9 4 3 3 5 7 11 13
22 26 29 31 34 38 37 37 38 38 39 39 36 28 19 12 15 12 12 13 7 9 16 10 8 7 5 11 7 7 5 5 2 3 5 7 10 2 6 6 4 5 2 5 8 5 5
17 24 29 32 34 36 39 40 39 39 41 41 35 28 18 10 14 16 7 5 12 10 12 17 13 11 9 9 5 8 5 3 4 2 2 11 2 7 3 6 5 3 2 8 8 6 7
21 25 26 31 33 31 33 36 39 41 44 42 33 26 18 8 14 16 20 18 15 11 6 10 12 10 8 6 5 5 7 4 5 2 1 7 5 2 5 4 1 4 7 5 5 8 7
17 19 25 26 28 31 34 35 39 40 42 35 31 25 17 7 6 10 17 11 10 9 9 14 10 9 8 5 6 6 7 5 6 3 2 7 6 2 3 3 9 4 7 5 3 6 6
17 23 23 24 27 31 34 36 37 39 39 32 28 26 18 12 8 12 9 6 8 1 6 8 8 7 9 6 4 8 8 3 1 4 9 8 4 2 1 5 7 9 4 3 1 6 5
19 22 21 22 25 28 32 34 35 36 36 30 21 26 24 11 14 12 8 5 4 9 2 5 8 12 9 10 7 5 5 7 3 2 5 11 7 4 4 4 2 7 7 12 8 6 2
20 22 23 26 28 31 35 37 37 37 33 25 13 24 28 21 13 10 5 4 9 9 8 10 7 10 4 9 11 15 10 15 9 9 11 12 3 6 3 3 5 10 10 6 6 6 7
22 25 23 26 27 30 32 35 35 36 32 25 12 13 29 23 13 11 4 8 7 1 4 7 7 9 7 14 8 14 7 9 11 11 6 7 9 6 8 4 2 5 8 8 6 3 5
22 20 25 27 29 29 34 39 39 40 35 22 9 8 25 19 14 10 2 12 3 3 7 11 9 9 8 9 9 10 9 8 6 11 7 10 8 9 3 3 4 2 1 5 9 5 4
19 22 27 30 33 35 38 39 40 39 36 23 7 2 26 12 12 8 11 9 5 7 10 4 5 5 7 13 9 10 9 9 12 10 2 4 9 4 9 3 8 2 6 4 6 4 7
16 20 24 30 32 38 38 38 41 39 36 21 4 5 24 8 10 14 8 5 7 13 8 10 5 7 6 8 5 7 8 4 13 14 8 7 3 13 6 10 4 9 5 9 5 7 7
18 21 25 29 31 35 39 40 40 39 35 19 5 4 21 6 11 9 5 4 6 15 21 14 8 7 6 8 9 6 6 5 28 7 6 5 5 7 12 4 4 7 7 8 6 5 1
19 21 26 27 29 33 37 37 38 38 35 23 6 9 21 5 8 5 7 9 19 15 14 12 10 10 8 7 2 6 7 9 29 16 6 8 4 7 15 8 10 12 7 4 3 4 7
16 21 24 27 28 31 34 36 35 34 29 18 5 6 22 29 18 11 8 6 7 21 13 14 11 10 9 9 10 4 11 8 20 21 17 1 2 8 10 5 1 11 11 6 4 2 5
15 20 23 27 30 31 35 38 36 33 24 11 11 7 7 5 18 18 10 5 5 9 11 26 10 11 6 5 5 8 10 11 10 25 13 9 3 7 7 10 7 10 6 5 9 9 10
12 16 20 23 27 30 33 35 37 34 19 13 7 9 15 10 7 11 13 7 5 4 9 7 8 7 10 7 4 5 8 2 3 14 10 15 4 8 8 9 9 10 7 4 5 5 5
9 15 17 19 22 26 31 35 36 34 24 16 19 19 6 12 6 6 3 3 3 7 10 11 5 5 5 3 17 29 28 27 21 5 6 3 2 6 8 10 15 5 4 9 3 7 3
5 11 14 17 20 23 27 32 36 39 39 23 20 13 10 5 8 5 6 7 7 6 7 6 11 5 5 30 27 8 6 13 16 17 22 4 3 2 6 11 6 3 5 12 10 5 9
3 8 12 14 17 18 22 27 31 34 37 27 18 9 8 7 11 11 13 9 8 10 7 6 9 10 20 15 7 8 7 2 8 6 8 16 4 1 2 4 7 5 4 2 1 4 3
1 4 8 10 12 15 20 24 27 26 28 25 28 23 16 25 1 11 9 6 5 3 7 5 11 9 13 8 6 6 4 5 8 13 18 10 7 4 1 2 7 4 3 19 7 3 19
0 2 5 4 7 12 17 21 23 24 22 25 28 20 13 16 10 9 5 7 6 7 5 4 10 11 15 6 6 6 3 3 4 6 6 4 3 5 6 6 10 2 7 8 8 5 12
3 2 3 3 2 7 12 16 18 20 21 20 26 25 13 11 16 10 7 7 8 4 6 2 4 9 7 7 4 1 1 2 3 6 4 2 2 6 3 6 12 3 2 2 11 30 29
7 4 3 9 2 3 7 10 14 16 17 17 18 18 14 9 10 8 2 4 13 9 6 5 6 2 3 6 1 3 2 3 4 5 7 6 9 6 11 8 7 10 14 26 39 32 23
Wind_Direction_850mb
325 324 323 320 320 320 322 320 318 319 317 323 319 325 326 327 329 327 325 321 308 287 261 255 259 280 242 147 115 127 136 161 342 56 33 33 43 20 29 335 342 161 306 296 287 289 280
317 317 316 315 319 320 321 323 325 320 322 323 320 324 324 327 331 329 329 324 310 291 260 240 231 232 171 127 135 116 165 227 176 71 55 45 44 6 352 1 30 316 303 297 307 304 255
313 315 316 319 325 329 328 328 326 326 326 326 325 323 323 328 333 337 336 334 325 298 236 210 188 173 156 142 153 129 44 137 126 76 38 22 9 357 331 347 337 324 345 349 14 340 28
317 324 327 335 339 337 337 336 335 333 335 338 326 321 321 331 334 343 349 3 12 78 140 156 150 145 109 151 169 284 327 167 148 104 53 30 5 44 69 323 10 33 46 17 324 4 5
326 329 344 347 347 342 342 345 348 349 349 344 334 331 328 336 337 349 23 50 68 89 105 116 122 116 108 114 103 51 61 132 167 215 336 324 329 64 54 72 23 9 60 357 328 31 339
343 346 347 349 346 342 346 350 351 352 349 349 348 343 337 342 346 3 89 89 93 89 91 88 85 106 99 33 349 331 232 185 96 137 294 23 53 57 33 64 211 265 14 317 265 317 20
352 356 345 346 346 350 350 354 355 355 353 352 353 349 349 358 359 23 130 120 109 79 58 69 65 75 47 5 61 75 70 166 178 49 62 25 61 188 247 191 132 123 145 268 262 272 60
350 337 342 357 355 357 355 356 359 0 357 355 357 356 359 31 33 39 140 130 109 132 81 58 62 56 33 17 60 73 51 68 82 96 26 19 236 207 203 144 154 171 262 280 285 331 106
330 339 347 356 358 2 4 5 3 3 360 358 4 5 7 46 45 53 74 93 119 117 88 46 46 35 19 31 54 44 28 29 78 43 19 163 232 321 175 141 193 243 183 223 220 349 68
353 359 3 1 4 3 3 7 5 5 2 3 10 14 10 25 47 43 47 69 116 99 81 325 358 26 23 38 47 26 22 22 31 2 137 233 290 342 120 250 136 278 195 170 157 77 212
5 8 5 6 3 3 4 6 7 4 3 5 15 13 18 28 49 40 35 62 134 82 42 337 348 1 353 54 327 21 14 10 39 305 78 263 338 2 4 229 173 218 59 8 331 118 73
9 8 4 7 4 3 1 3 4 5 1 2 8 17 20 23 40 40 26 97 104 48 154 9 347 358 32 18 22 1 54 54 49 50 11 247 298 260 250 55 32 112 76 40 46 84 22
4 3 6 5 3 2 359 356 358 359 1 357 354 13 19 18 4 23 32 114 39 96 332 337 342 9 336 334 13 28 41 17 33 19 6 332 319 322 10 49 37 72 54 342 353 4 235
1 1 5 3 1 358 352 352 353 353 359 349 328 357 18 11 13 4 59 53 82 173 345 341 347 324 69 4 32 15 59 33 23 20 17 28 344 23 343 87 178 47 136 152 276 243 268
1 8 3 359 359 357 353 351 351 349 352 350 329 318 358 10 10 9 56 53 116 333 297 337 318 52 14 0 32 67 50 22 4 17 47 10 283 322 49 9 93 137 116 175 102 11 35
4 4 5 1 359 357 353 349 350 351 350 350 332 303 2 11 18 13 76 122 119 13 329 338 68 14 47 344 39 36 22 334 342 31 306 343 314 327 294 77 34 96 160 40 17 243 265
10 6 7 2 359 358 353 349 348 353 351 352 336 136 9 22 16 40 91 102 92 26 51 35 41 42 44 15 11 35 1 6 359 325 24 357 102 294 344 33 35 356 14 45 124 143 204
15 8 7 3 359 354 353 350 350 353 356 357 317 56 10 62 42 52 70 66 52 8 28 38 89 69 57 38 33 64 104 31 355 328 12 1 125 285 250 343 326 55 65 60 96 289 173
16 11 6 2 359 359 357 351 353 355 359 0 28 11 16 105 103 74 65 58 51 26 28 16 39 24 13 47 71 62 31 25 19 36 54 327 355 348 348 6 18 46 35 82 192 81 231
19 9 7 4 3 4 0 358 357 359 3 13 10 25 34 55 65 99 97 36 88 41 51 56 24 45 36 34 16 55 9 3 357 15 0 193 121 189 212 259 230 307 328 28 149 188 267
3 8 11 10 13 12 9 6 4 2 6 23 49 68 58 22 23 70 82 50 66 22 37 30 38 48 12 38 19 29 10 337 15 10 33 61 293 332 292 280 256 252 306 314 229 243 207
358 6 17 17 16 15 14 12 10 9 6 36 67 113 83 72 35 52 31 35 58 35 29 17 75 357 14 81 111 299 18 255 273 4 36 0 306 352 280 318 327 276 344 121 19 343 50
0 5 18 25 25 19 19 19 23 25 34 72 89 95 92 22 55 69 10 132 71 116 65 69 68 73 56 319 296 283 273 257 260 6 344 344 60 28 271 334 312 282 40 86 71 17 71
11 13 18 26 30 27 25 27 32 36 46 63 95 96 91 33 57 74 107 95 81 50 129 81 52 58 308 313 309 292 284 262 256 257 220 198 151 154 282 339 234 124 92 130 112 38 50
10 22 21 25 31 29 30 34 40 41 44 42 68 89 91 102 104 83 95 99 89 72 78 80 34 349 330 335 25 22 357 85 43 47 226 193 136 297 321 278 300 258 179 60 309 200 54
69 19 34 37 40 39 37 37 41 44 47 45 66 78 97 121 208 125 112 84 116 39 19 26 13 355 6 44 44 55 59 324 324 352 56 91 79 104 39 275 265 173 318 329 183 222 327
300 12 31 66 64 49 45 43 39 39 45 50 62 64 80 101 129 139 129 136 118 116 114 343 348 5 16 25 62 52 354 303 328 322 327 1 37 184 260 268 285 228 321 13 185 170 297
216 264 308 172 110 52 45 39 34 33 38 46 54 50 68 97 131 137 126 126 144 129 123 84 48 3 38 62 93 259 116 275 323 272 284 265 332 229 192 233 265 186 65 2 284 308 296
204 267 282 196 178 61 42 35 29 25 26 32 48 45 64 99 132 151 165 245 214 132 103 88 122 145 109 92 65 116 255 23 133 272 329 276 204 212 182 238 243 281 245 293 299 275 271